GSAT-10 (GAGAN/PRN 128)

Last updated on Aug. 14, 2020, 5:31 a.m. UTC

1 38779U 12051B   20226.06489486 -.00000163  00000-0  00000-0 0  9991
2 38779   0.1108 279.7360 0000224  98.6516  49.9332  1.00272408 28726
UTC
Height (km)
Latitude
Longitude
Inclination
Orbital Period
UTC large
Height (km)
Speed (km/s)
/
Latitude / Longitude
Inclination (degrees)
Orbital Period (minutes)
Azimuth
Elevation
Range (km)
Doppler Factor
iOS Compass Heading
iOS Angle

Next 30 passes for location: Hong Kong

Rise time Rise Azimuth (degrees) Set time Set Azimuth (degrees) Duration Max altitude (degrees)

No matching passes for this satellites